When you browse on this site, cookies collect data to enhance your experience and personalize the content and advertising you see.
Visit our Privacy Policy to learn more. By continuing to use the site, you agree to this use of cookies and data.
  • In Österreich
  • Länderverzeichnis
  • Für 7 Tage
  • Wassertemperatur
  • Satellitenkarten
  • Wetterkarte
  • News
  • Widgets
  • user-avatar
    Anmelden

    Stündliche Wetter Algier

    Heute, 18 November, Sonntag

    Zeit Temperatur Niederschläge Wind Luftdruck Luftfeuchtigkeit
    00:00 +14°C° 0 mm 1 m/S 745 mmHg 91%
    01:00 +14°C° 0 mm 1 m/S 745 mmHg 90%
    02:00 +14°C° 0 mm 1 m/S 745 mmHg 89%
    03:00 +14°C° 0 mm 1 m/S 744 mmHg 88%
    04:00 +14°C° 0 mm 2 m/S 744 mmHg 86%
    05:00 +14°C° 0 mm 2 m/S 744 mmHg 84%
    06:00 +14°C° 0 mm 2 m/S 744 mmHg 82%
    07:00 +16°C° 0 mm 3 m/S 744 mmHg 76%
    08:00 +17°C° 0 mm 3 m/S 744 mmHg 70%
    09:00 +18°C° 0 mm 3 m/S 744 mmHg 64%
    10:00 +20°C° 0 mm 3 m/S 744 mmHg 58%
    11:00 +21°C° 0 mm 4 m/S 743 mmHg 53%
    12:00 +22°C° 0 mm 4 m/S 743 mmHg 47%
    13:00 +22°C° 0 mm 5 m/S 742 mmHg 47%
    14:00 +22°C° 0 mm 5 m/S 742 mmHg 47%
    15:00 +22°C° 0 mm 5 m/S 741 mmHg 47%
    16:00 +21°C° 0 mm 5 m/S 741 mmHg 50%
    17:00 +20°C° 0 mm 5 m/S 741 mmHg 53%
    18:00 +19°C° 0 mm 5 m/S 741 mmHg 57%
    19:00 +19°C° 0 mm 5 m/S 741 mmHg 58%
    20:00 +19°C° 0 mm 5 m/S 741 mmHg 59%
    21:00 +19°C° 0 mm 5 m/S 741 mmHg 60%
    22:00 +17°C° 0 mm 5 m/S 740 mmHg 62%
    23:00 +17°C° 0 mm 6 m/S 740 mmHg 64%

    Morgen, 19 November, Montag

    Zeit Temperatur Niederschläge Wind Luftdruck Luftfeuchtigkeit
    00:00 +16°C° 0 mm 6 m/S 739 mmHg 66%
    01:00 +16°C° 0 mm 6 m/S 739 mmHg 67%
    02:00 +16°C° 0 mm 5 m/S 739 mmHg 68%
    03:00 +16°C° 0 mm 5 m/S 738 mmHg 69%
    04:00 +15°C° 0 mm 5 m/S 738 mmHg 71%
    05:00 +15°C° 0 mm 5 m/S 738 mmHg 74%
    06:00 +14°C° 0 mm 4 m/S 738 mmHg 76%
    07:00 +15°C° 0.2 mm 4 m/S 738 mmHg 73%
    08:00 +16°C° 0.2 mm 5 m/S 738 mmHg 70%
    09:00 +16°C° 0.2 mm 5 m/S 738 mmHg 67%
    10:00 +17°C° 0.7 mm 5 m/S 738 mmHg 65%
    11:00 +17°C° 0.7 mm 5 m/S 738 mmHg 62%
    12:00 +17°C° 0.7 mm 5 m/S 738 mmHg 59%
    13:00 +17°C° 0.4 mm 6 m/S 737 mmHg 59%
    14:00 +17°C° 0.4 mm 6 m/S 737 mmHg 58%
    15:00 +17°C° 0.4 mm 6 m/S 737 mmHg 57%
    16:00 +16°C° 0 mm 7 m/S 737 mmHg 59%
    17:00 +15°C° 0 mm 7 m/S 737 mmHg 61%
    18:00 +15°C° 0 mm 7 m/S 737 mmHg 62%
    19:00 +14°C° 0.1 mm 7 m/S 737 mmHg 65%
    20:00 +14°C° 0.1 mm 7 m/S 738 mmHg 67%
    21:00 +14°C° 0.1 mm 7 m/S 738 mmHg 70%
    22:00 +14°C° 0.2 mm 7 m/S 738 mmHg 71%
    23:00 +14°C° 0.2 mm 7 m/S 738 mmHg 73%

    übermorgen, 20 November, Dienstag

    Zeit Temperatur Niederschläge Wind Luftdruck Luftfeuchtigkeit
    00:00 +12°C° 0.2 mm 7 m/S 738 mmHg 74%
    01:00 +12°C° 0.4 mm 7 m/S 738 mmHg 76%
    02:00 +13°C° 0.4 mm 6 m/S 738 mmHg 78%
    03:00 +13°C° 0.4 mm 6 m/S 738 mmHg 79%
    04:00 +13°C° 0.4 mm 5 m/S 739 mmHg 82%
    05:00 +13°C° 0.4 mm 4 m/S 739 mmHg 85%
    06:00 +13°C° 0.4 mm 4 m/S 740 mmHg 87%
    07:00 +14°C° 0.1 mm 4 m/S 740 mmHg 82%
    08:00 +14°C° 0.1 mm 4 m/S 741 mmHg 77%
    09:00 +15°C° 0.1 mm 5 m/S 742 mmHg 71%
    10:00 +16°C° 0.1 mm 5 m/S 742 mmHg 65%
    11:00 +17°C° 0.1 mm 6 m/S 742 mmHg 58%
    12:00 +19°C° 0.1 mm 6 m/S 742 mmHg 52%
    13:00 +18°C° 0.1 mm 7 m/S 742 mmHg 51%
    14:00 +20°C° 0.1 mm 7 m/S 742 mmHg 51%
    15:00 +20°C° 0.1 mm 7 m/S 742 mmHg 51%
    16:00 +19°C° 0 mm 6 m/S 743 mmHg 54%
    17:00 +17°C° 0 mm 6 m/S 743 mmHg 57%
    18:00 +16°C° 0 mm 5 m/S 743 mmHg 60%
    19:00 +16°C° 0 mm 5 m/S 744 mmHg 60%
    20:00 +15°C° 0 mm 4 m/S 744 mmHg 59%
    21:00 +15°C° 0 mm 4 m/S 745 mmHg 59%
    22:00 +15°C° 0 mm 4 m/S 745 mmHg 58%
    23:00 +15°C° 0 mm 5 m/S 745 mmHg 58%

    21 November, Mittwoch

    Zeit Temperatur Niederschläge Wind Luftdruck Luftfeuchtigkeit
    00:00 +15°C° 0 mm 5 m/S 745 mmHg 57%
    01:00 +14°C° 0 mm 6 m/S 745 mmHg 59%
    02:00 +14°C° 0 mm 6 m/S 745 mmHg 61%
    03:00 +14°C° 0 mm 7 m/S 746 mmHg 63%
    04:00 +12°C° 0.1 mm 7 m/S 746 mmHg 67%
    05:00 +12°C° 0.1 mm 7 m/S 746 mmHg 70%
    06:00 +12°C° 0.1 mm 7 m/S 747 mmHg 73%
    07:00 +14°C° 0.1 mm 7 m/S 747 mmHg 68%
    08:00 +15°C° 0.1 mm 7 m/S 748 mmHg 62%
    09:00 +17°C° 0.1 mm 7 m/S 748 mmHg 57%
    10:00 +19°C° 0 mm 6 m/S 748 mmHg 52%
    11:00 +20°C° 0 mm 6 m/S 748 mmHg 47%
    12:00 +21°C° 0 mm 6 m/S 748 mmHg 42%
    13:00 +21°C° 0 mm 5 m/S 748 mmHg 42%
    14:00 +21°C° 0 mm 5 m/S 748 mmHg 42%
    15:00 +21°C° 0 mm 4 m/S 748 mmHg 41%
    16:00 +20°C° 0 mm 4 m/S 748 mmHg 46%
    17:00 +19°C° 0 mm 3 m/S 748 mmHg 51%
    18:00 +17°C° 0 mm 3 m/S 749 mmHg 56%
    19:00 +17°C° 0 mm 3 m/S 749 mmHg 56%
    20:00 +17°C° 0 mm 2 m/S 749 mmHg 56%
    21:00 +16°C° 0 mm 2 m/S 750 mmHg 56%
    22:00 +16°C° 0 mm 2 m/S 750 mmHg 55%
    23:00 +16°C° 0 mm 2 m/S 749 mmHg 55%

    22 November, Donnerstag

    Zeit Temperatur Niederschläge Wind Luftdruck Luftfeuchtigkeit
    00:00 +16°C° 0 mm 2 m/S 749 mmHg 54%
    01:00 +15°C° 0 mm 2 m/S 749 mmHg 55%
    02:00 +14°C° 0 mm 3 m/S 749 mmHg 57%
    03:00 +14°C° 0 mm 3 m/S 749 mmHg 58%
    04:00 +13°C° 0 mm 3 m/S 749 mmHg 58%
    05:00 +13°C° 0 mm 3 m/S 749 mmHg 57%
    06:00 +13°C° 0 mm 3 m/S 749 mmHg 57%
    07:00 +16°C° 0 mm 3 m/S 749 mmHg 53%
    08:00 +17°C° 0 mm 2 m/S 750 mmHg 50%
    09:00 +18°C° 0 mm 2 m/S 750 mmHg 46%
    10:00 +19°C° 0 mm 2 m/S 750 mmHg 42%
    11:00 +21°C° 0 mm 2 m/S 750 mmHg 37%
    12:00 +23°C° 0 mm 2 m/S 749 mmHg 32%
    13:00 +23°C° 0 mm 2 m/S 749 mmHg 34%
    14:00 +22°C° 0 mm 3 m/S 749 mmHg 35%
    15:00 +22°C° 0 mm 3 m/S 749 mmHg 36%
    16:00 +20°C° 0 mm 3 m/S 750 mmHg 44%
    17:00 +19°C° 0 mm 2 m/S 750 mmHg 52%
    18:00 +18°C° 0 mm 1 m/S 750 mmHg 60%
    19:00 +17°C° 0 mm 2 m/S 750 mmHg 59%
    20:00 +17°C° 0 mm 2 m/S 751 mmHg 57%
    21:00 +16°C° 0 mm 2 m/S 751 mmHg 55%
    22:00 +16°C° 0 mm 2 m/S 751 mmHg 53%
    23:00 +16°C° 0 mm 2 m/S 751 mmHg 50%

    23 November, Freitag

    Zeit Temperatur Niederschläge Wind Luftdruck Luftfeuchtigkeit
    00:00 +16°C° 0 mm 2 m/S 751 mmHg 48%
    01:00 +16°C° 0 mm 2 m/S 751 mmHg 48%
    02:00 +15°C° 0 mm 2 m/S 751 mmHg 48%
    03:00 +14°C° 0 mm 3 m/S 751 mmHg 48%
    04:00 +14°C° 0 mm 3 m/S 751 mmHg 49%
    05:00 +14°C° 0 mm 3 m/S 751 mmHg 50%
    06:00 +15°C° 0 mm 2 m/S 751 mmHg 50%
    07:00 +16°C° 0 mm 2 m/S 751 mmHg 48%
    08:00 +17°C° 0 mm 2 m/S 752 mmHg 46%
    09:00 +19°C° 0 mm 2 m/S 752 mmHg 43%
    10:00 +20°C° 0 mm 2 m/S 752 mmHg 40%
    11:00 +22°C° 0 mm 1 m/S 751 mmHg 36%
    12:00 +24°C° 0 mm 1 m/S 751 mmHg 33%
    13:00 +23°C° 0 mm 1 m/S 751 mmHg 34%
    14:00 +23°C° 0 mm 2 m/S 751 mmHg 36%
    15:00 +23°C° 0 mm 2 m/S 750 mmHg 37%
    16:00 +21°C° 0 mm 2 m/S 750 mmHg 40%
    17:00 +20°C° 0 mm 2 m/S 751 mmHg 42%
    18:00 +19°C° 0 mm 2 m/S 751 mmHg 45%
    19:00 +18°C° 0 mm 3 m/S 751 mmHg 45%
    20:00 +18°C° 0 mm 3 m/S 751 mmHg 45%
    21:00 +17°C° 0 mm 3 m/S 751 mmHg 45%
    22:00 +17°C° 0 mm 3 m/S 751 mmHg 45%
    23:00 +17°C° 0 mm 3 m/S 750 mmHg 46%
    Mehr zeigen